Orbital Elements at Epoch 2459000.5 (2020-May-31.0) TDB
Reference: JPL 28 (heliocentric ecliptic J2000)
Element | Value | Uncertainty (1-sigma) | Units |
e | .1222691585311916 | 2.8073e-08 | |
a | 2.238379135819795 | 6.2269e-09 | au |
q | 1.964694402409333 | 6.2507e-08 | au |
i | 5.30257569310277 | 3.2862e-06 | deg |
node | 37.40862789651406 | 3.258e-05 | deg |
peri | 58.74963190164173 | 3.5279e-05 | deg |
M | 129.3284379176631 | 1.3398e-05 | deg |
tp | 2458561.069262666889 (2019-Mar-18.56926267) | 4.5169e-05 | TDB |
period | 1223.204022155086 3.35 | 5.1042e-06 1.397e-08 | d yr |
n | .2943090387863004 | 1.2281e-09 | deg/d |
Q | 2.512063869230257 | 6.9883e-09 | au |
|
| | Orbit Determination Parameters
Additional Information
|